Weather in Ratno

Ukraine / Volyn Oblast     51˚39′57″N   24˚31′32″E
temp.,
°C
wind,
m/s
gust,
m/s
humid.,
%
clouds,
%
prec.,
mm/h
press.,
hPa
HPBL,
m
3 december, thu
thu323:00−2˚sse4689100 0.0 1024527
02:00−2˚sse4788100 0.1 1024601
05:00−2˚se3891100 0.1 1022510
08:00−3˚se379099 0.1 1021182
11:00sse6118281 0.0 1020700
14:00+1˚se6118382 0.0 1019634
17:00se6148672 0.0 1017528
20:00se7158666 0.0 1016533
4 december, fri
fri423:00se7168848 0.0 1016564
02:00+1˚se7158952 0.0 1015542
05:00+1˚se71689100 0.0 1013599
08:00+2˚se71490100 0.0 1013631
11:00+3˚se81488100 0.0 1013648
14:00+3˚se81487100 0.0 1012653
17:00+4˚se71589100 0.0 1012647
20:00+5˚se7178689 0.0 1012567
5 december, sat
sat523:00+5˚sse7178824 0.0 1012478
02:00+5˚sse7179114 0.0 1013510
05:00+5˚sse6169131 0.0 1013507
08:00+6˚sse7169130 0.0 1015519
11:00+8˚sse7148571 0.0 1016684
14:00+9˚sse8138186 0.0 1017772
17:00+8˚se71584100 0.0 1017690
20:00+7˚se7168665 0.0 1018648
6 december, sun
sun623:00+6˚se7168536 0.0 1019663
02:00+6˚se7158343 0.0 1020662
05:00+5˚se7158449 0.0 1020643
08:00+5˚se8138168 0.0 1021686
11:00+4˚se81477100 0.0 1022724
14:00+4˚se8147486 0.0 1022720
17:00+3˚se816697 0.0 1022758
20:00+2˚se817634 0.0 1023752
7 december, mon
mon723:00ese918540 0.0 1023706
02:00ese918540 0.0 1023761
05:00−1˚se918550 0.0 1022792
08:00−1˚se919550 0.0 1022823
11:00se1017530 0.0 1023837
14:00+1˚se1016530 0.0 1022954
17:00se8165949 0.0 1023814
20:00−1˚se8166025 0.0 1024774